Regional Weather Roundup
Issued by NWS

Home | Current Version | Previous Version | Graphics & Text | Print | Product List | Glossary On
Versions: 1 2 3 4 5 6 7 8 9 10 11 12 13 14 15 16 17 18 19 20 21 22 23 24 25 26 27 28 29 30 31 32 33 34 35 36 37 38 39 40 41 42 43 44 45 46 47 48 49 50
000
ASUS45 KABQ 270801
RWRNM
WEATHER ROUNDUP FOR NEW MEXICO
NATIONAL WEATHER SERVICE ALBUQUERQUE NM
200 AM MDT WED AUG 27 2014

NOTE: "FAIR" MEANS FEW OR NO CLOUDS BELOW 12,000 FEET AGL WITH NO
       SIGNIFICANT WEATHER OR OBSTRUCTIONS TO VISION.

      THIS PRODUCT IS RELEASED AS TWO VERSIONS.  ONE VERSION NEAR
      THE TOP OF THE HOUR CONTAINING PRELIMINARY DATA FROM ALBUQUERQUE
      AND OTHER STATIONS.  A FINAL VERSION WITH ADDITIONAL DATA IS
      ISSUED ABOUT 10 MINUTES AFTER THE HOUR.

NMZ501-503-504-510>518-270900-
NORTHWEST PLATEAU/NORTHCENTRAL MOUNTAINS

CITY           SKY/WX    TMP DP  RH WIND       PRES   REMARKS
FARMINGTON     CLEAR     56  54  93 CALM      30.28R
LOS ALAMOS     LGT RAIN  54  54 100 CALM      30.35F
SANTA FE       LGT RAIN  58  54  86 N6        30.31S
TAOS           CLOUDY    55  52  88 SE5       30.36F
ANGEL FIRE     CLOUDY    51  49  92 CALM      30.42F

$$
NMZ402-403-502-505>509-270900-
WESTCENTRAL MOUNTAINS/SOUTHWEST MOUNTAINS

CITY           SKY/WX    TMP DP  RH WIND       PRES   REMARKS
GALLUP         PTCLDY    52  50  93 CALM      30.33S
SILVER CITY    CLOUDY    68  54  60 CALM      30.29R

$$
NMZ407-409-411-412-270900-
SOUTHERN DESERTS

CITY           SKY/WX    TMP DP  RH WIND       PRES   REMARKS
LORDSBURG      FAIR      64  63  94 CALM      30.19S
DEMING         MOCLDY    68  61  78 NW6       30.19F
LAS CRUCES     CLOUDY    68  63  84 W7        30.21S
HOLLOMAN AFB   LGT RAIN  68  67  97 SE5       30.18R
ALAMOGORDO     CLOUDY    66  66 100 SE6       30.22R
T OR C         LGT RAIN  67  58  72 NW12      30.23R

$$
NMZ519>523-270900-
CENTRAL VALLEYS/CENTRAL HIGHLANDS

CITY           SKY/WX    TMP DP  RH WIND       PRES   REMARKS
ALBUQUERQUE    CLOUDY    62  57  83 CALM      30.30R
DOUBLE EAGLE   LGT RAIN  57  55  93 NW6       30.31R
CLINES CORNERS CLOUDY    58  55  90 SW10      30.33S
BELEN          CLOUDY    59  57  92 NE10      30.28F
SOCORRO        LGT RAIN  61  60  96 S5        30.27R

$$
NMZ524>526-539-540-270900-
SOUTHCENTRAL MOUNTAINS

CITY           SKY/WX    TMP DP  RH WIND       PRES   REMARKS
RUIDOSO        NOT AVBL

$$
NMZ527>531-270900-
NORTHEAST HIGHLANDS/NORTHEAST PLAINS

CITY           SKY/WX    TMP DP  RH WIND       PRES   REMARKS
LAS VEGAS      LGT RAIN  57  55  93 CALM      30.32F
RATON          CLOUDY    59  57  93 W6        30.28F
CLAYTON        FOG       63  61  93 SE6       30.22F VSB 1/2

$$
NMZ532>537-270900-
EASTCENTRAL PLAINS

CITY           SKY/WX    TMP DP  RH WIND       PRES   REMARKS
TUCUMCARI        N/A     68  64  87 E7        30.16F
CANNON AFB     MOCLDY    68  63  83 E2        30.20S
CLOVIS AIRPORT   N/A     66  61  82 CALM      30.22S

$$
NMZ028-029-538-270900-
SOUTHEAST PLAINS

CITY           SKY/WX    TMP DP  RH WIND       PRES   REMARKS
ROSWELL        MOCLDY    71  62  73 CALM      30.11F
CARLSBAD       MOCLDY    72  66  81 NW3       30.10F
HOBBS          CLOUDY    72  63  73 NE6       30.14F


$$


USA.gov is the U.S. government's official web portal to all federal, state and local government web resources and services.